Orbital Elements
Epoch 2014 Oct. 30.0 TT = JDT 2456960.5
T 2014 Nov. 14.60937 TT MPCW
q 4.0793217 (2000.0) P Q
n 0.04971063 Peri. 223.36865 -0.37175833 -0.92212674
a 7.3254872 Node 248.71759 +0.88004553 -0.31333319
e 0.4431331 Incl. 6.60228 +0.29549215 -0.22694622
P 19.83
From 856 observations 1993 Oct. 12-2017 Mar. 21, mean residual 0".5.
|